Home   Weather   Paris   Past weeks
Flag for France

Past Weather in Paris, Île-de-France, France — Yesterday and Last 2 Weeks

Now
39 °F

Passing clouds.


Feels Like: 34 °F
Forecast: 52 / 33 °F
Wind: 7 mph from Northeast

Location: Villacoublay

Current Time: Apr 1, 2020 at 10:36:16 am

Latest Report: Apr 1, 2020 at 9:30 am


Visibility: N/A

Pressure: 30.18 "Hg

Humidity: 61%

Dew Point: 27 °F

Location of ParisLocation

Past Weather in Paris — Graph

°F

Paris Temperature Yesterday

Maximum temperature yesterday: 52 °F (at 4:30 pm)
Minimum temperature yesterday: 36 °F (at 7:30 am)
Average temperature yesterday: 44 °F

High & Low Weather Summary for the Past Weeks

 TemperatureHumidityPressure
High68 °F (Mar 19, 4:30 pm)94% (Mar 18, 8:00 am)30.45 "Hg (Mar 18, 8:00 am)
Low32 °F (Mar 30, 5:30 am)21% (Mar 24, 5:30 pm)30.01 "Hg (Mar 26, 2:30 pm)
Average46 °F58%30.20 "Hg
* Reported Mar 17 8:00 am — Apr 1 9:00 am, Paris. Weather by CustomWeather, © 2020

Note: Actual official high and low records may vary slightly from our data, if they occured in-between our weather recording intervals... More about our weather records

Paris Weather History for the Previous 24 Hours

Scroll right to see more
 ConditionsComfort  
Time TempWeatherWind HumidityBarometerVisibility
9:00 am
Wed, Apr 1
37 °FSunny.8 mph65%30.18 "Hg10 mi
8:30 am36 °FSunny.7 mph70%30.18 "Hg10 mi
8:00 am36 °FSunny.8 mph65%30.18 "Hg10 mi
7:30 am34 °FSunny.8 mph70%30.18 "Hg10 mi
7:00 am36 °FClear.7 mph65%30.18 "Hg10 mi
6:30 am36 °FClear.8 mph65%30.18 "Hg10 mi
6:00 am36 °FClear.8 mph65%30.18 "Hg10 mi
5:30 am36 °FClear.6 mph65%30.18 "Hg10 mi
5:00 am37 °FClear.7 mph60%30.18 "Hg10 mi
4:30 am37 °FClear.7 mph60%30.18 "Hg10 mi
4:00 am37 °FClear.7 mph60%30.18 "Hg10 mi
3:30 am37 °FClear.7 mph60%30.21 "Hg10 mi
3:00 am37 °FClear.7 mph60%30.21 "Hg10 mi
2:30 am39 °FClear.7 mph56%30.21 "Hg10 mi
2:00 am41 °FClear.9 mph57%30.21 "Hg10 mi
1:30 am41 °FClear.12 mph53%30.21 "Hg10 mi
1:00 am41 °FClear.12 mph57%30.24 "Hg10 mi
12:30 am43 °FClear.12 mph53%30.24 "Hg10 mi
12:00 am43 °FClear.12 mph57%30.24 "Hg10 mi
11:30 pm
Tue, Mar 31
43 °FClear.12 mph57%30.24 "Hg10 mi
11:00 pm45 °FClear.13 mph57%30.24 "Hg10 mi
10:30 pm45 °FClear.14 mph57%30.24 "Hg10 mi
10:00 pm46 °FClear.13 mph57%30.24 "Hg10 mi
9:30 pm46 °FClear.13 mph57%30.24 "Hg10 mi
9:00 pm48 °FClear.15 mph40%30.24 "Hg10 mi
8:30 pm48 °FClear.15 mph43%30.24 "Hg10 mi
8:00 pm50 °FSunny.16 mph40%30.24 "Hg10 mi
7:30 pm50 °FSunny.15 mph40%30.21 "Hg10 mi
7:00 pm50 °FSunny.16 mph43%30.24 "Hg10 mi
6:30 pm50 °FPassing clouds.16 mph40%30.24 "HgN/A
6:00 pm52 °FPassing clouds.15 mph41%30.24 "HgN/A
5:30 pm52 °FPassing clouds.14 mph44%30.24 "HgN/A
5:00 pm52 °FPassing clouds.18 mph41%30.24 "HgN/A
4:30 pm52 °FSunny.16 mph41%30.24 "Hg10 mi
4:00 pm50 °FSunny.18 mph43%30.27 "Hg10 mi
3:00 pm50 °FScattered clouds.16 mph50%30.27 "HgN/A
2:30 pm50 °FScattered clouds.15 mph50%30.27 "HgN/A
2:00 pm48 °FPartly sunny.15 mph54%30.30 "HgN/A
1:30 pm46 °FPartly sunny.15 mph57%30.30 "HgN/A
1:00 pm46 °FPartly sunny.16 mph57%30.30 "HgN/A
12:30 pm46 °FScattered clouds.17 mph62%30.30 "HgN/A
12:00 pm45 °FScattered clouds.16 mph61%30.30 "HgN/A
11:30 am45 °FScattered clouds.16 mph66%30.30 "HgN/A
11:00 am43 °FPartly sunny.15 mph71%30.33 "HgN/A
10:30 am43 °FScattered clouds.13 mph71%30.33 "HgN/A
10:00 am41 °FPartly sunny.12 mph81%30.33 "HgN/A
Weather by CustomWeather, © 2020

See weather overview

Advertising